Weather observations for the past three days for
Concord Municipal Airport
Imperial (Metric)
Date Time (edt) Wind (mph) Vis. (mi.) Weather Sky Cond. Temperature (ºF) Relative Humidity Wind Chill (°F) Heat Index (°F) Pressure Precipitation (in)
Air Dwpt 6 hour altimeter (in) sea level (mb) 1 hr 3 hr 6 hr
Max. Min.
15 22:51 NW 6 10.00 Fair CLR 55.9 42.1 60% 30.12 1019.9
15 21:51 NW 6 10.00 Fair CLR 59 41 51% 30.11 1019.4
15 20:51 N 8 10.00 Fair CLR 62.1 41 46% 30.08 1018.6
15 19:51 N 10 10.00 Fair CLR 64.9 42.1 73.9 64.9 43% 30.05 1017.7
15 18:51 NW 12 10.00 Fair CLR 69.1 41 36% 30.03 1016.8
15 17:51 NW 17 G 26 10.00 Fair CLR 71.1 41 34% 30.01 1016.3
15 16:51 NW 10 10.00 Partly Cloudy SCT070 73 43 34% 30 1015.6
15 15:51 NW 17 G 25 10.00 Fair CLR 73 41 32% 29.98 1015.2
15 14:51 NW 17 G 25 10.00 Fair CLR 73.9 43 33% 29.98 1015.0
15 13:51 NW 15 G 24 10.00 Fair CLR 73 44.1 73 63 35% 29.97 1014.7
15 12:51 N 17 G 31 10.00 Fair CLR 71.1 42.1 35% 29.97 1014.8
15 11:51 NW 16 G 24 10.00 Fair CLR 70 43 38% 29.96 1014.5
15 10:51 NW 18 G 30 10.00 Fair CLR 69.1 43 39% 29.97 1014.9
15 09:51 NW 17 G 29 10.00 Fair CLR 68 42.1 39% 29.96 1014.4
15 08:51 NW 20 G 26 10.00 Fair CLR 66 45 47% 29.96 1014.5
15 07:51 NW 9 10.00 Partly Cloudy SCT100 64 50 68 62.1 60% 29.96 1014.4
15 06:51 NW 9 10.00 Mostly Cloudy BKN080 62.1 53.1 73% 29.94 1013.6
15 05:51 NW 10 10.00 Partly Cloudy SCT080 SCT095 63 53.1 70% 29.91 1012.8
15 04:51 NW 9 10.00 Overcast BKN070 OVC090 64 54 70% 29.88 1011.8
15 03:51 NW 8 10.00 Overcast OVC065 64.9 55 70% 29.87 1011.2
15 02:51 Calm 10.00 Overcast BKN060 OVC120 66 55 68% 29.85 1010.8
15 01:51 NW 3 10.00 Light Rain SCT060 BKN070 OVC090 66.9 55 73 66.9 66% 29.86 1011.1
15 00:51 NW 8 10.00 Overcast BKN055 OVC110 68 55.9 65% 29.86 1010.9
14 23:51 NW 8 10.00 Mostly Cloudy BKN120 69.1 57.9 68% 29.85 1010.6
14 22:51 NW 9 10.00 A Few Clouds FEW048 70 63 79% 29.84 1010.3
14 21:51 S 5 10.00 Fair CLR 70 64 82% 29.84 1010.3
14 20:51 SE 5 10.00 Fair CLR 71.1 66.9 87% 29.81 1009.2
14 19:51 S 7 10.00 Fair CLR 73 66.9 79 73 81% 29.8 1008.9
14 18:51 S 9 10.00 A Few Clouds FEW030 75.9 66.9 74% 77 29.78 1008.4
14 17:51 SW 8 10.00 Fair CLR 78.1 66.9 69% 80 29.79 1008.8
14 16:51 S 9 10.00 Fair CLR 77 66.9 71% 79 29.81 1009.1
14 15:51 S 7 10.00 Partly Cloudy FEW026 SCT032 77 68 74% 79 29.8 1009.0
14 14:51 S 10 10.00 Mostly Cloudy BKN023 BKN029 77 66.9 71% 79 29.81 1009.4
14 13:51 SW 8 10.00 Fair CLR 73.9 66 73.9 68 76% 29.83 1010.0 0.04
14 12:51 S 5 10.00 A Few Clouds FEW037 72 68 87% 29.84 1010.3 0.01
14 11:51 Calm 6.00 Light Rain Fog/Mist OVC110 70 66.9 90% 29.85 1010.9 0.01
14 10:51 S 3 10.00 Light Rain FEW050 SCT095 OVC110 70 64.9 84% 29.85 1010.7 0.02
14 09:51 S 5 10.00 Overcast FEW090 OVC100 69.1 64 84% 29.85 1010.6 0.02
14 08:51 S 6 10.00 Mostly Cloudy FEW080 BKN110 69.1 63 81% 29.84 1010.4
14 07:51 S 5 10.00 Mostly Cloudy BKN100 69.1 62.1 69.1 60.1 78% 29.84 1010.3
14 06:51 SE 7 10.00 A Few Clouds FEW110 66 59 78% 29.84 1010.3
14 05:51 S 5 10.00 Fair CLR 62.1 57 84% 29.83 1010.1
14 04:51 SE 7 10.00 Fair CLR 62.1 55.9 80% 29.83 1009.9
14 03:51 SE 5 10.00 Fair CLR 62.1 55.9 80% 29.83 1009.9
14 02:51 SE 3 10.00 Fair CLR 61 57 87% 29.84 1010.4
14 01:51 S 3 10.00 Fair CLR 66.9 55.9 77 63 68% 29.86 1011.0
14 00:51 SE 5 10.00 Fair CLR 64.9 57.9 78% 29.88 1011.7
13 23:51 SE 5 10.00 Fair CLR 66 59 78% 29.9 1012.2
13 22:51 S 3 10.00 Fair CLR 71.1 59 66% 29.9 1012.4
13 21:51 SE 5 10.00 Fair CLR 71.1 57.9 63% 29.9 1012.3
13 20:51 Calm 10.00 Fair CLR 73 57 57% 29.9 1012.2
13 19:51 S 6 10.00 Fair CLR 77 57 84 77 50% 79 29.9 1012.3
13 18:51 S 12 G 17 10.00 Fair CLR 81 55.9 42% 81 29.89 1012.0
13 17:51 S 8 10.00 Fair CLR 82.9 55 38% 82 29.89 1012.0
13 16:51 S 12 10.00 A Few Clouds FEW070 82 54 38% 81 29.9 1012.5
13 15:51 S 10 10.00 Fair CLR 82.9 54 37% 82 29.91 1012.8
13 14:51 Calm 10.00 Fair CLR 82 53.1 37% 81 29.93 1013.4
13 13:51 Calm 10.00 Fair CLR 81 53.1 81 63 38% 80 29.95 1014.0
13 12:51 S 6 10.00 Fair CLR 77 52 42% 78 29.96 1014.5
13 11:51 N 6 10.00 Fair CLR 75 52 45% 78 29.98 1015.2
13 10:51 Vrbl 3 10.00 Fair CLR 73 53.1 50% 29.99 1015.6
13 09:51 Vrbl 5 10.00 Fair CLR 70 52 53% 30 1015.8
13 08:51 W 7 10.00 Fair CLR 66.9 54 63% 30.01 1016.1
13 07:51 Calm 10.00 Fair CLR 62.1 55 62.1 50 78% 30.01 1016.0
13 06:51 Calm 10.00 Fair CLR 57 55.9 96% 30 1016.0
13 05:51 Calm 10.00 Fair CLR 52 52 100% 29.99 1015.4
13 04:51 Calm 10.00 Fair CLR 52 51.1 97% 29.97 1015.0
13 03:51 Calm 10.00 Fair CLR 52 52 100% 29.97 1014.7
13 02:51 Calm 8.00 Fair CLR 55 55 100% 29.96 1014.4
13 01:51 Calm 6.00 Fog/Mist CLR 55 55 68 55 100% 29.96 1014.4
13 00:51 Calm 10.00 Fair CLR 57.9 57.9 100% 29.97 1014.9
12 23:51 SW 6 10.00 A Few Clouds FEW050 60.1 60.1 100% 29.98 1015.2
Date Time (edt) Wind (mph) Vis. (mi.) Weather Sky Cond. Air Dwpt Max. Min. Relative Humidity Wind Chill (°F) Heat Index (°F) altimeter (in) sea level (mb) 1 hr 3 hr 6 hr
6 hour
Temperature (ºF) Pressure Precipitation (in)